Showing default

QIANFAN-54, 62255

Orbit data source: Space-Track

QIANFAN-54, 62255 is a Chinese payload satellite in LEO that was launched on Thu, 05 Dec 2024 UTC via a CHANG ZHENG 6A launch vehicle from the Taiyaun Space Center, China (TSC). Payloads include a variety of satellites, spacecraft, and rockets equipped with specific instruments for various scientific and technological missions. These include communications satellites like Starlink; space stations such as the ISS; scientific satellites like the Hubble; Earth observation satellites from companies like Planet Labs, Umbra, and HawkEye 360; GPS; miniature CubeSats for education and research; and military/defense satellites.

Loading next visibility...
QIANFAN-54 details
Identifier
62255, 2024-232U
Orbit
LEO
Last TLE update6 hours ago
Origin
Flag of CNYUANX (CN / PRC)
ManufacturerSECM
MissionOperational spacecraft
Bus & MotorQIANFAN, Unknown motor
Mass300 kg wet, ~300 kg dry
Launch date (UTC)
2024-12-05 (2 months ago)
Launch vehicle
CHANG ZHENG 6A
Launch site
Taiyaun Space Center, China (TSC)
Object type
Payload
Rocket body
Debris
Shape & HBRUnknown
Radar Cross SectionLarge (>1 m²)

Expand to show TLE details & history

TLE from 6 hours ago
0 QIANFAN-54
1 62255U 24232U   25025.57477826  .00000699  00000-0  30309-3 0  9995
2 62255  88.9898  74.2280 0016450  59.5072 300.7742 14.23142403 55646
Epoch: 2025-01-25T13:47Z
Definitive object data (Epoch: 2025-01-25T13:47:40.841Z)
Latitude
Longitude102.1862°
Altitude811.762 km
Speed7.45 km/s
True Right ascension04h 56m 54s
True Declination0° 00' 00"
Sunlit
Object was in full shadow at TLE epoch
Visualization TLE readout
Latitude-6.46245°
Longitude-77.72844°
Altitude826.079 km
Speed7.436 km/s
Apparent Right ascension14h 10m 27s
Apparent Declination-36° 54' 29"
Sunlit
Object is in daylight
Visualization observer readout
Local Sidereal Time21:04:41
Azimuth246.356° WSW
Elevation-31.947°
Doppler factor1
Orbital elements
Apogee altitude823.519 km
Perigee altitude799.864 km
Semi-major axis7,189.829 km
Eccentricity0.001645
Inclination88.9898°
RAAN74.228°
Arg. of periapsis59.5072°
True anomaly300.61207°
Mean anomaly300.7742°
Eccentric anomaly300.69315°
Mean motion3.56013 °/min
BSTAR0.00030309
Orbital period101.12 mins
Loading maneuver chart data...
Loading historical data...
Loading historical data...
Loading historical data...
Loading historical data...
Loading historical data...
Loading historical data...
Loading historical data...

QIANFAN-54 Visibility forecast

Observer location: undefined°, undefined

Span
Click to sort rows by Start time (UTC) header in descending order
Start Az.
Max El. time (UTC)
Max El. Az.
Max El.
End time (UTC)
End Az.
10 mins2025-01-26 03:23:42.275Z170.96° S2025-01-26 03:28:42.275Z104.706° ESE43.911°2025-01-26 03:33:42.275Z3.142° NNE
4 mins2025-01-26 14:02:42.275Z61.468° ENE2025-01-26 14:03:42.275Z73.886° E14.351°2025-01-26 14:06:42.275Z109.202° ESE
9 mins2025-01-26 15:41:42.275Z351.026° N2025-01-26 15:45:42.275Z269.772° W41.72°2025-01-26 15:50:42.275Z195.012° SSW
|